Dewpoint
8 7 6 5 4 4 4 3 2 2 2 1 1 -0 -5 -11 -12 -10 -10 -13 -16 -15 -9 -8 -10 -8 -10 -5 -6 -7 -8 -11 -9 -8 -7 -7 -5 -4 -3 -5 -5 -4 -5 -4 -4 -3 -2
8 7 7 6 4 1 1 1 1 0 0 2 1 0 -1 -1 -7 -12 -15 -16 -15 -13 -13 -7 -7 -9 -9 -7 -6 -6 -8 -9 -9 -8 -8 -7 -5 -5 -5 -5 -5 -6 -5 -4 -4 -4 -3
7 7 6 5 2 -1 -4 -5 -4 -3 -3 -3 -0 2 0 -1 -1 -4 -11 -13 -13 -13 -12 -12 -7 -8 -7 -6 -7 -6 -7 -8 -9 -9 -8 -8 -6 -5 -4 -4 -4 -5 -5 -6 -6 -5 -4
5 5 3 -0 -4 -7 -9 -10 -10 -10 -9 -8 -7 -3 2 -1 -1 -1 -2 -11 -12 -12 -12 -12 -8 -7 -6 -7 -7 -6 -6 -7 -8 -8 -9 -8 -6 -5 -3 -5 -4 -4 -4 -3 -5 -4 -3
-2 -4 -7 -9 -11 -12 -12 -12 -12 -12 -13 -13 -13 -11 -3 -0 -1 -3 -4 -3 -2 -6 -6 -12 -12 -9 -6 -6 -5 -5 -6 -6 -7 -7 -8 -9 -6 -3 -4 -4 -4 -3 -4 -3 -4 -3 -3
-9 -11 -11 -12 -12 -12 -12 -12 -13 -13 -13 -14 -15 -15 -14 -1 -1 -3 -6 -4 -3 -2 -1 -4 -11 -8 -8 -6 -5 -5 -6 -5 -7 -7 -5 -5 -3 -4 -4 -4 -2 -3 -3 -5 -4 -5 -3
-10 -11 -12 -13 -12 -11 -11 -12 -12 -12 -13 -13 -14 -15 -16 -13 -0 -2 -6 -4 -4 -3 -5 -5 -7 -8 -6 -7 -6 -5 -5 -5 -7 -4 -3 -2 -2 -2 -5 -5 -6 -5 -4 -3 -4 -6 -4
-11 -12 -12 -12 -12 -12 -11 -12 -12 -12 -12 -13 -13 -14 -14 -16 -2 -1 -4 -5 -5 -3 -2 -3 -5 -7 -7 -4 -4 -4 -5 -5 -5 -4 -2 -2 -1 -3 -4 -4 -4 -4 -2 -2 -3 -5 -4
-11 -11 -13 -12 -11 -11 -11 -12 -11 -12 -12 -12 -13 -13 -13 -14 -8 -1 -2 -0 -0 0 0 -1 -4 -3 -4 -4 -3 -3 -4 -4 -4 -3 -2 -2 -3 -4 -3 -3 -3 -3 -2 -2 -2 -3 -3
-10 -6 -10 -11 -10 -10 -10 -9 -9 -9 -10 -10 -11 -12 -13 -12 -7 -11 -1 1 1 2 2 -1 -2 -3 -3 -4 -3 -3 -4 -4 -4 -2 -3 -2 -3 -4 -3 -3 -3 -1 -4 -3 -3 -1 1
5 2 -4 -10 -6 -5 -4 -4 -5 -5 -6 -7 -4 -3 -4 -8 -8 -7 -2 0 2 1 4 -2 -2 -3 -3 -2 -2 -2 -3 -4 -3 -3 -2 -0 -2 -2 -1 -2 -4 -2 -4 -3 -2 -1 0
4 2 -1 -4 -4 -5 -4 -1 0 1 0 -2 0 0 -1 -2 -4 -5 -4 -0 3 2 8 -0 -0 -1 -1 -1 -1 -2 -3 -4 -4 -3 -3 -3 -3 -3 -3 -4 -5 -3 -1 0 1 0 4
4 4 4 4 3 3 3 2 2 2 1 1 1 2 1 0 -1 -3 -2 1 -1 -1 -4 -2 1 0 -0 -0 -0 -1 -1 -1 0 2 2 -1 -1 -3 -4 -2 -4 -2 -0 3 4 6 4
4 4 3 3 3 3 3 3 3 2 2 1 1 1 2 1 1 0 1 2 -3 -5 -4 -1 0 1 1 0 0 1 1 1 -1 -1 1 2 4 -1 -3 -2 -0 -1 -0 2 2 -0 -4
3 3 3 2 2 2 2 1 1 2 2 2 1 1 2 1 2 2 2 -0 -8 -4 -3 1 0 2 1 1 0 1 1 1 -1 -1 1 1 1 -2 -4 -4 -3 -1 1 -1 1 0 3
2 1 -2 -4 -8 -12 -13 -15 -15 -12 -11 -11 -4 0 1 3 3 4 2 1 -1 -2 1 -1 -0 -0 -1 -0 1 1 0 -1 0 -2 -3 -1 1 -1 -3 -4 -4 -1 -2 2 2 3 1
-10 -14 -16 -17 -17 -18 -18 -19 -20 -21 -23 -23 -15 1 2 3 3 3 3 2 1 -1 0 0 -0 -1 -2 -2 -0 -2 -3 -2 -2 -1 -2 -1 0 -1 -3 -1 -0 -1 0 -0 0 0 1
-14 -13 -14 -14 -15 -16 -16 -17 -17 -20 -23 -23 -7 -2 2 2 3 3 3 1 0 1 0 1 -0 0 0 -1 -0 -1 -1 -3 -3 -2 -0 -2 0 2 -0 -3 -3 -2 -2 -2 1 0 1
-10 -11 -12 -12 -13 -14 -15 -16 -16 -17 -21 -17 -4 3 3 6 6 5 3 3 2 3 2 1 0 -0 -0 3 4 2 1 -1 -1 -2 -1 -1 1 3 1 -0 -0 -0 -1 -2 -1 3 5
-5 -5 -8 -9 -16 -20 -24 -24 -20 -16 -18 -13 2 1 2 4 2 2 3 3 4 2 3 1 3 0 2 4 2 4 3 1 2 -1 -1 -2 2 4 5 1 -0 3 1 -0 0 5 4
-7 -4 -4 -5 -4 -6 -14 -25 -33 -29 -18 -14 -2 2 -0 1 -3 -5 -7 -2 1 3 -1 -0 1 -0 -0 1 3 5 4 2 1 2 2 3 7 5 4 3 2 3 4 4 3 2 4
-4 -4 -4 -5 -5 -4 -4 -5 -9 -24 -22 -16 -3 -4 -8 -7 -6 -8 -8 -4 -1 -4 -5 -6 -0 -9 -10 -4 -3 -0 2 -2 -0 -0 -2 -2 5 5 6 5 5 6 5 5 5 6 6
-4 -4 -4 -4 -4 -4 -4 -4 -4 -4 -10 -7 -5 -4 -3 -6 -5 -6 -4 -5 -8 -5 -8 -6 -9 -8 -6 -5 -7 -8 -7 -8 -8 -7 -8 -3 4 5 6 4 6 7 -2 -3 -4 -9 -7
-3 -3 -3 -3 -3 -4 -3 -4 -4 -4 -4 -5 -5 -5 -5 -6 -5 -6 -6 -5 -5 -6 -5 -6 -9 -7 -8 -10 -9 -10 -10 -11 -12 -9 -3 -0 3 4 5 4 6 -5 -8 -7 -9 -10 -10
-3 -2 -2 -2 -3 -3 -4 -4 -4 -4 -4 -6 -5 -6 -5 -6 -8 -8 -6 -7 -6 -7 -7 -8 -6 -8 -7 -7 -6 -6 -10 -8 -4 -2 -4 -3 1 2 3 2 1 -5 -9 -11 -10 -9 -11
-4 -6 -8 -7 -3 -3 -3 -4 -4 -5 -5 -4 -6 -6 -7 -6 -7 -6 -8 -6 -7 -6 -7 -8 -8 -7 -6 -6 -7 -2 -6 -6 -5 -6 -12 -10 -8 -2 -2 0 2 -10 -12 -12 -11 -7 -12
-3 -3 -3 -5 -8 -6 -4 -2 -3 -4 -6 -5 -5 -4 -5 -5 -7 -7 -7 -7 -7 -8 -7 -8 -6 -8 -6 -5 -4 -3 -5 -6 -4 -7 -6 -6 -6 -4 -3 -2 -8 -13 -13 -13 -5 -10 -13
-3 -3 -3 -3 -3 -3 -7 -4 -2 -3 -4 -4 -9 -5 -5 -4 -5 -7 -7 -6 -6 -6 -7 -8 -7 -6 -7 -5 -5 -6 -7 -6 -5 -6 -6 -8 -7 -7 -6 -5 -5 -14 -15 -13 -14 -14 -13
-3 -3 -3 -3 -3 -3 -2 -6 -4 -2 -4 -7 -8 -6 -4 -4 -6 -7 -8 -9 -8 -7 -6 -5 -7 -6 -6 -5 -5 -4 -5 -4 -4 -3 -13 -9 -13 -10 -11 -11 -13 -13 -14 -14 -14 -14 -14
Wind_Speed
15 17 18 19 19 20 21 22 22 22 21 17 13 9 6 4 4 4 4 4 5 4 5 5 6 8 8 4 6 6 5 5 5 5 9 10 8 6 5 4 5 8 5 5 8 5 8
14 16 16 18 19 19 20 20 21 21 21 20 18 13 10 8 6 6 6 6 6 5 6 7 9 9 7 6 6 5 6 7 7 7 8 10 5 7 3 4 7 1 7 9 6 9 8
14 15 16 17 18 18 19 19 19 20 20 20 19 17 14 9 7 7 7 7 7 7 7 8 9 8 10 11 7 7 5 7 7 7 7 9 9 6 4 3 3 3 6 7 13 8 4
14 15 16 17 17 18 18 19 19 19 20 20 19 19 17 11 6 4 6 8 9 9 10 9 8 7 7 9 10 11 8 7 8 6 6 6 6 5 3 2 2 4 3 5 4 8 3
15 16 16 16 17 17 18 18 19 19 19 19 19 19 18 14 6 8 9 9 10 10 11 11 11 8 7 7 12 12 10 6 9 8 7 6 6 3 3 4 5 5 8 8 3 10 3
12 14 16 15 15 16 17 18 18 19 20 20 19 19 17 15 7 10 8 6 7 10 11 10 12 5 11 6 8 12 11 8 7 9 5 5 3 4 4 7 8 5 6 6 8 5 7
15 14 14 15 15 16 16 17 18 19 19 20 20 20 18 15 10 9 8 4 3 3 8 10 6 5 3 8 8 10 10 9 8 5 6 4 7 13 15 14 10 5 9 14 8 3 4
15 16 16 15 14 16 17 17 18 19 20 20 20 19 19 17 10 7 7 3 4 5 10 16 24 18 9 7 4 11 11 9 8 9 6 4 13 13 2 4 9 9 11 15 9 4 6
15 15 15 15 16 17 17 18 20 20 20 20 20 20 19 18 10 8 7 6 8 9 6 6 7 9 12 13 7 9 16 7 7 8 11 13 1 5 6 6 9 11 14 11 9 2 8
17 15 16 15 15 16 18 20 20 21 21 20 21 20 20 18 6 13 6 10 11 9 4 3 3 3 6 6 4 9 16 6 5 8 6 9 2 7 6 9 11 13 9 8 5 3 10
14 16 18 17 17 18 20 20 21 22 23 22 21 20 20 18 14 11 9 10 9 4 5 4 2 4 5 4 3 5 11 6 6 7 5 3 7 7 9 8 13 3 2 4 2 6 5
13 17 20 19 18 19 20 21 22 23 23 22 22 21 19 18 15 8 9 8 4 3 7 1 3 3 3 4 2 4 3 4 1 3 5 9 0 4 4 3 6 9 4 2 1 3 9
16 19 22 24 25 24 23 23 24 24 25 24 22 21 19 17 10 11 8 4 3 5 1 3 3 4 3 5 5 7 6 7 6 4 7 4 7 3 4 5 3 7 5 4 5 5 8
18 20 22 24 25 27 27 26 25 24 24 25 22 20 19 17 14 8 3 3 8 2 6 2 1 2 5 6 4 5 4 7 11 5 6 8 9 11 11 13 7 14 8 7 9 7 11
20 21 22 23 24 25 26 26 26 26 25 26 23 18 16 13 5 2 2 6 4 4 3 3 1 4 4 2 3 5 8 8 6 16 10 6 8 3 6 4 5 7 10 3 8 7 8
17 19 20 21 22 23 25 27 27 27 26 25 24 20 10 4 2 2 3 4 4 3 3 1 4 4 6 3 4 5 5 4 4 11 8 3 10 5 5 3 1 5 4 4 5 8 16
17 18 19 19 20 22 24 26 28 29 27 21 17 8 4 4 2 3 5 6 5 4 2 3 5 7 8 9 8 10 9 2 4 3 8 4 7 7 6 9 12 5 6 6 5 9 15
16 17 18 19 20 21 22 23 26 29 30 24 8 3 3 10 4 1 3 2 3 3 4 6 4 9 14 13 15 15 20 17 5 8 7 8 5 13 19 7 3 13 18 20 13 18 12
16 18 20 21 22 22 22 22 23 26 28 25 9 5 9 5 3 1 6 5 4 4 4 4 4 3 2 7 7 12 11 6 13 8 6 6 7 13 17 8 2 8 15 17 18 11 23
17 19 20 22 21 22 23 22 21 20 21 15 5 4 6 8 8 5 6 6 7 13 2 10 7 12 8 6 8 10 9 4 21 5 7 2 13 16 16 17 3 6 10 14 17 12 19
19 21 21 23 25 25 25 25 24 18 15 10 7 4 3 4 4 11 7 7 10 6 10 14 1 10 8 5 6 5 7 9 12 15 8 4 8 16 23 26 20 19 20 18 16 18 15
20 21 21 22 25 26 26 28 27 25 15 9 5 6 8 6 9 9 7 7 8 7 4 8 6 14 9 8 11 16 8 10 8 8 11 11 6 7 12 23 22 23 26 28 30 31 32
22 23 23 24 23 23 24 25 26 26 23 10 8 7 3 5 5 4 3 8 8 9 7 7 11 13 12 11 20 26 27 29 24 20 18 13 6 6 15 18 16 14 13 13 16 19 11
27 27 25 23 24 23 21 23 22 21 19 15 10 6 4 3 5 6 13 12 9 13 13 18 19 10 10 29 29 23 28 32 30 26 21 18 16 11 14 15 17 9 15 16 20 20 18
20 20 24 27 26 26 24 21 20 16 16 12 10 8 3 4 9 11 11 17 13 13 11 15 8 15 23 15 5 7 4 2 6 9 12 6 3 5 4 9 1 9 11 8 7 7 18
22 19 20 17 18 20 21 24 21 15 6 9 7 5 3 4 2 3 13 9 11 9 7 7 23 17 7 3 3 2 2 5 6 11 11 11 6 2 6 6 4 6 21 18 5 3 22
23 23 25 24 20 17 18 20 21 18 12 10 9 7 3 5 8 6 8 8 7 9 7 15 12 9 6 3 2 2 3 4 4 7 12 10 6 5 6 4 4 16 28 17 1 8 24
22 23 24 26 26 23 18 15 18 17 18 15 9 8 7 6 19 11 15 14 13 11 5 12 8 1 4 2 2 3 2 3 2 4 4 5 6 4 4 4 2 28 8 7 8 14 15
20 20 21 23 23 23 19 18 16 16 17 12 7 8 17 8 23 25 22 18 16 18 13 6 5 4 3 2 0 1 3 2 1 0 10 4 5 3 5 3 7 8 9 8 11 13 17
Wind_Direction
26 27 25 23 23 24 27 29 31 31 31 27 21 13 356 324 291 276 264 253 240 233 255 252 280 313 316 282 253 236 242 224 215 208 205 203 194 193 224 208 191 238 264 232 245 239 236
19 20 18 17 17 18 19 21 22 24 24 25 23 15 358 331 303 279 262 247 237 252 262 265 280 294 291 257 243 235 231 226 223 221 218 211 223 219 248 227 219 302 264 264 257 240 238
9 11 9 10 10 12 14 14 15 16 17 18 17 16 5 347 308 276 265 256 249 256 257 271 282 278 276 258 242 228 235 228 225 222 220 218 223 195 184 213 235 272 283 255 233 223 242
5 5 5 5 7 9 10 11 11 11 11 11 9 9 9 358 355 324 285 267 260 259 258 263 266 290 260 258 232 226 229 223 213 209 210 201 197 199 212 164 214 245 241 260 135 174 190
2 360 3 7 8 9 11 10 11 11 10 7 5 3 5 8 357 338 310 280 264 260 260 258 266 265 261 244 224 221 219 221 210 208 199 193 178 180 161 227 246 210 266 231 239 201 167
8 4 1 6 10 10 10 10 9 9 9 7 4 1 359 360 345 348 339 315 280 261 255 253 242 263 234 228 210 208 210 210 197 191 175 184 175 218 201 205 247 234 234 237 251 173 218
3 3 4 3 5 6 7 6 6 7 6 4 3 2 358 353 348 348 350 336 331 270 230 217 210 208 153 195 191 197 204 197 183 190 209 185 218 220 228 223 271 282 268 265 259 174 250
2 359 356 0 359 359 360 0 0 1 2 360 358 359 358 353 345 349 355 354 342 301 294 257 243 236 224 197 203 215 197 184 189 214 157 194 241 246 199 218 228 238 259 262 271 199 222
357 356 354 357 355 355 354 354 355 355 355 354 352 352 355 353 345 350 344 352 336 330 265 273 235 230 230 223 226 208 191 194 211 209 206 230 241 122 185 188 208 229 237 258 267 246 236
355 356 350 354 352 352 353 352 351 350 349 350 348 347 347 354 353 338 329 336 337 337 278 207 202 218 183 174 229 198 190 192 202 235 208 245 186 207 204 230 210 254 229 236 238 261 278
12 360 351 351 347 349 350 351 350 346 345 345 346 344 344 346 334 327 321 328 337 346 299 98 154 172 177 196 132 192 190 197 227 190 189 222 181 191 215 230 190 266 107 179 209 251 302
4 354 352 352 349 345 343 345 346 347 343 340 342 340 338 336 327 318 319 325 329 230 246 194 135 175 178 207 201 142 178 204 178 215 233 260 3 223 236 114 184 138 118 108 147 239 257
359 356 353 351 348 347 346 342 339 340 340 335 335 333 332 329 314 307 307 313 251 225 42 186 215 190 221 202 203 195 180 189 209 202 225 202 220 187 182 177 138 193 181 261 238 207 256
356 355 354 351 347 344 341 341 339 338 337 336 331 326 322 317 306 295 285 220 236 216 252 28 133 168 224 173 215 185 201 234 225 229 271 267 271 187 179 218 197 193 219 219 253 251 281
345 344 346 344 340 338 337 336 335 333 332 330 337 328 316 308 293 278 183 221 246 227 352 323 246 232 223 230 243 207 223 242 238 196 218 221 248 146 197 167 188 164 208 263 263 253 269
334 333 339 340 343 345 344 342 339 333 331 329 328 333 294 253 221 205 210 256 264 233 323 255 269 223 270 252 225 217 223 168 233 206 234 255 276 183 135 149 196 221 138 173 205 257 254
347 353 359 1 3 1 0 358 354 350 349 343 334 319 227 218 243 208 240 238 258 278 233 252 276 278 268 281 256 259 262 235 223 207 214 238 231 236 151 197 207 178 215 226 293 248 258
13 12 10 8 8 7 6 6 5 1 1 2 11 293 272 300 270 247 239 236 312 293 312 284 248 258 263 276 271 257 256 246 189 170 204 218 255 255 247 224 286 268 242 232 236 240 239
17 11 6 2 359 357 357 359 6 5 6 1 354 308 3 4 284 305 341 316 295 307 337 322 285 252 13 302 296 256 270 294 267 229 256 189 232 267 260 223 189 229 230 240 246 276 251
11 8 3 1 357 353 350 349 354 360 6 14 26 351 346 35 61 29 7 311 343 342 356 350 341 36 353 320 256 271 273 351 340 275 358 26 264 247 256 265 291 241 236 231 233 246 257
13 12 10 6 5 4 359 357 354 6 5 20 26 48 30 335 321 334 312 265 300 338 353 17 117 75 17 311 321 314 2 339 321 314 331 314 251 257 261 269 276 268 266 263 250 249 251
15 12 10 7 6 6 9 7 6 3 24 41 38 6 346 301 316 333 352 15 341 345 302 309 296 319 302 253 267 290 293 311 283 304 329 319 279 281 263 258 260 261 268 272 267 269 266
19 16 12 9 8 8 9 9 9 17 19 53 41 13 346 324 346 329 27 351 312 338 300 257 325 313 300 323 310 289 270 265 254 258 268 262 264 271 269 280 278 257 349 348 54 31 336
11 7 8 10 6 6 4 8 12 19 28 36 26 17 4 314 332 329 322 319 313 317 284 289 310 283 325 313 302 283 266 259 255 253 255 269 280 258 267 274 257 97 42 54 84 43 21
5 10 7 360 356 3 4 359 7 14 26 27 21 28 18 293 303 303 323 316 316 319 297 296 313 306 313 306 291 317 314 337 47 84 74 349 343 303 1 324 108 50 26 357 3 43 13
3 358 351 360 358 346 349 3 2 357 8 349 16 7 352 308 240 270 304 302 324 325 313 295 315 316 312 270 275 297 329 336 348 342 344 2 34 9 338 292 306 16 328 317 238 172 4
359 3 3 357 348 346 342 336 349 356 349 326 325 303 270 271 275 293 296 295 291 288 299 309 328 324 344 340 307 313 320 340 354 331 335 343 358 344 316 267 92 340 327 324 17 335 348
0 7 7 1 354 347 334 342 325 339 345 328 292 312 319 258 289 287 292 272 283 269 281 311 316 222 298 352 314 351 322 356 288 44 4 41 340 14 315 339 277 357 358 49 316 330 342
1 6 6 358 357 358 349 338 338 318 329 324 294 302 293 268 284 300 297 295 269 262 266 244 268 306 295 300 87 281 277 262 255 62 24 55 353 358 13 63 330 8 50 11 354 341 342
Height
1543 1540 1538 1536 1533 1530 1527 1524 1520 1517 1514 1511 1509 1507 1506 1505 1505 1505 1505 1504 1505 1505 1504 1503 1503 1503 1502 1503 1501 1499 1499 1500 1500 1501 1502 1503 1504 1504 1502 1502 1504 1502 1498 1499 1498 1498 1498
1543 1541 1540 1538 1535 1531 1528 1525 1521 1518 1515 1512 1509 1507 1506 1505 1504 1503 1503 1503 1503 1503 1502 1502 1501 1501 1502 1503 1498 1498 1498 1499 1499 1500 1501 1501 1502 1502 1502 1501 1501 1499 1498 1497 1496 1496 1495
1544 1542 1540 1538 1535 1531 1528 1525 1522 1519 1516 1513 1510 1507 1505 1504 1503 1502 1502 1502 1501 1501 1501 1500 1500 1499 1499 1499 1496 1496 1497 1497 1498 1499 1499 1499 1500 1501 1501 1500 1500 1499 1497 1492 1490 1492 1492
1545 1542 1540 1537 1534 1531 1528 1525 1522 1520 1516 1514 1511 1508 1505 1503 1501 1500 1500 1500 1500 1499 1499 1499 1498 1498 1496 1493 1493 1495 1495 1496 1496 1497 1498 1498 1498 1499 1500 1500 1500 1497 1497 1487 1486 1490 1490
1545 1543 1540 1536 1533 1531 1528 1525 1523 1520 1517 1514 1511 1508 1505 1502 1501 1500 1499 1498 1497 1497 1497 1497 1497 1497 1494 1490 1491 1492 1494 1494 1495 1496 1497 1497 1498 1498 1500 1496 1493 1493 1481 1484 1481 1487 1488
1544 1542 1540 1536 1534 1531 1528 1526 1523 1520 1517 1514 1511 1508 1505 1502 1500 1499 1497 1496 1495 1495 1494 1494 1494 1499 1490 1488 1488 1490 1491 1492 1494 1495 1497 1497 1497 1494 1495 1492 1485 1478 1485 1481 1479 1483 1487
1545 1542 1539 1537 1534 1531 1528 1526 1523 1520 1518 1514 1511 1508 1505 1502 1500 1498 1497 1495 1497 1496 1492 1487 1485 1484 1484 1486 1487 1488 1489 1491 1493 1494 1492 1494 1492 1484 1477 1480 1478 1484 1482 1478 1473 1482 1483
1545 1542 1540 1537 1534 1531 1528 1526 1523 1520 1517 1514 1511 1508 1505 1502 1499 1498 1497 1496 1495 1495 1488 1481 1480 1481 1482 1483 1484 1485 1488 1491 1490 1488 1491 1493 1484 1475 1482 1484 1485 1484 1481 1475 1474 1482 1483
1545 1542 1539 1537 1534 1531 1528 1526 1523 1520 1517 1514 1510 1507 1504 1501 1499 1498 1497 1496 1494 1492 1489 1476 1474 1476 1480 1482 1480 1480 1484 1485 1485 1486 1485 1479 1475 1479 1479 1482 1483 1480 1476 1469 1474 1479 1479
1544 1542 1539 1536 1533 1531 1528 1525 1522 1519 1516 1513 1510 1506 1503 1501 1501 1497 1496 1495 1492 1490 1486 1473 1474 1474 1476 1477 1478 1477 1479 1483 1483 1480 1483 1479 1476 1477 1478 1476 1476 1473 1469 1475 1478 1477 1466
1545 1542 1538 1536 1533 1530 1527 1524 1521 1518 1515 1512 1509 1505 1503 1500 1499 1497 1497 1494 1492 1491 1495 1474 1475 1475 1474 1476 1477 1477 1477 1479 1476 1477 1481 1468 1474 1477 1476 1469 1472 1468 1476 1477 1479 1475 1480
1544 1541 1537 1534 1532 1529 1526 1523 1520 1517 1513 1511 1508 1505 1502 1499 1497 1496 1494 1493 1492 1492 1497 1471 1473 1474 1475 1474 1475 1476 1477 1478 1478 1477 1476 1470 1474 1472 1465 1471 1473 1477 1477 1480 1482 1478 1470
1543 1540 1537 1533 1530 1527 1524 1522 1518 1515 1511 1508 1506 1503 1500 1497 1496 1494 1493 1493 1493 1490 1472 1470 1469 1472 1472 1470 1471 1472 1473 1474 1469 1473 1468 1467 1465 1465 1467 1468 1475 1474 1472 1469 1467 1477 1454
1543 1540 1537 1533 1530 1526 1522 1519 1515 1512 1509 1505 1502 1499 1497 1494 1492 1491 1492 1493 1494 1474 1470 1469 1469 1471 1468 1466 1467 1469 1469 1465 1465 1466 1462 1460 1458 1458 1459 1455 1454 1466 1462 1460 1458 1446 1433
1544 1540 1536 1532 1528 1524 1520 1516 1512 1509 1505 1501 1498 1495 1493 1490 1489 1490 1493 1489 1475 1473 1472 1471 1470 1468 1466 1467 1467 1467 1464 1456 1451 1456 1458 1456 1452 1454 1455 1455 1454 1463 1464 1453 1452 1446 1452
1541 1538 1534 1530 1526 1522 1518 1513 1509 1505 1501 1496 1493 1490 1488 1488 1488 1489 1489 1484 1478 1475 1474 1472 1471 1464 1463 1461 1466 1465 1456 1451 1451 1450 1450 1444 1447 1447 1454 1456 1457 1454 1453 1456 1455 1452 1440
1540 1537 1533 1529 1526 1522 1518 1513 1508 1502 1497 1493 1490 1488 1485 1486 1487 1487 1483 1479 1476 1473 1473 1473 1468 1466 1462 1463 1462 1459 1448 1449 1449 1450 1453 1449 1448 1440 1453 1449 1439 1456 1449 1451 1449 1432 1427
1540 1537 1533 1529 1525 1522 1517 1513 1508 1502 1495 1491 1489 1488 1485 1485 1487 1485 1479 1478 1478 1473 1473 1472 1469 1466 1463 1461 1457 1455 1448 1447 1446 1447 1447 1443 1438 1431 1425 1427 1437 1435 1425 1427 1431 1422 1419
1540 1537 1533 1529 1526 1522 1517 1513 1509 1504 1497 1492 1492 1490 1487 1485 1481 1481 1482 1480 1478 1475 1473 1469 1466 1466 1466 1465 1465 1449 1446 1446 1445 1445 1438 1437 1434 1429 1418 1427 1439 1433 1423 1422 1414 1418 1413
1541 1537 1533 1530 1525 1521 1516 1512 1509 1505 1500 1497 1496 1493 1490 1489 1493 1494 1494 1486 1482 1480 1477 1478 1474 1472 1476 1468 1459 1453 1448 1447 1450 1448 1445 1444 1438 1433 1418 1407 1417 1428 1422 1421 1420 1420 1405
1541 1538 1534 1531 1526 1521 1515 1511 1507 1505 1502 1499 1499 1501 1502 1495 1493 1496 1494 1489 1485 1487 1483 1481 1477 1485 1487 1478 1471 1460 1461 1461 1455 1451 1446 1445 1436 1430 1422 1417 1417 1419 1418 1415 1417 1411 1411
1542 1539 1535 1531 1527 1522 1517 1513 1508 1503 1501 1500 1504 1506 1503 1502 1500 1495 1491 1490 1490 1492 1491 1483 1482 1480 1480 1480 1476 1474 1470 1466 1463 1451 1449 1451 1439 1435 1426 1419 1417 1413 1410 1409 1405 1403 1397
1543 1540 1536 1532 1528 1525 1520 1516 1511 1506 1503 1504 1508 1509 1508 1503 1500 1498 1497 1499 1494 1495 1488 1485 1485 1482 1476 1473 1473 1469 1464 1459 1452 1447 1445 1443 1443 1431 1413 1409 1407 1403 1449 1440 1440 1461 1455
1545 1541 1536 1534 1529 1525 1521 1517 1514 1511 1510 1510 1510 1510 1510 1504 1504 1502 1500 1500 1497 1497 1494 1486 1484 1479 1475 1471 1464 1454 1448 1443 1442 1439 1446 1441 1435 1429 1411 1410 1402 1460 1468 1466 1466 1476 1472
1545 1541 1538 1534 1531 1527 1523 1519 1516 1515 1513 1512 1511 1511 1510 1507 1504 1503 1502 1499 1496 1492 1491 1487 1482 1481 1475 1470 1459 1449 1440 1432 1433 1440 1446 1447 1441 1436 1424 1426 1420 1446 1466 1477 1478 1475 1479
1544 1540 1537 1533 1531 1528 1525 1521 1518 1515 1514 1513 1512 1511 1510 1509 1502 1501 1499 1498 1496 1491 1487 1485 1480 1475 1472 1467 1459 1462 1451 1444 1440 1439 1437 1438 1439 1439 1435 1427 1420 1482 1475 1474 1475 1464 1482
1544 1540 1536 1532 1529 1526 1523 1520 1518 1515 1513 1512 1511 1509 1508 1507 1500 1500 1498 1496 1496 1493 1490 1485 1481 1474 1471 1465 1459 1457 1454 1456 1455 1454 1450 1444 1453 1444 1438 1430 1473 1492 1475 1468 1453 1484 1487
1544 1540 1536 1531 1527 1523 1520 1518 1516 1514 1511 1509 1508 1507 1507 1503 1496 1494 1493 1492 1491 1491 1490 1487 1482 1477 1472 1467 1466 1464 1462 1459 1461 1466 1473 1480 1483 1473 1467 1460 1458 1494 1480 1484 1501 1493 1493
1543 1538 1534 1529 1525 1521 1518 1515 1513 1511 1509 1506 1505 1505 1503 1500 1494 1490 1487 1485 1485 1485 1488 1486 1482 1480 1476 1472 1472 1472 1466 1466 1464 1459 1485 1487 1507 1496 1500 1502 1508 1505 1503 1503 1500 1497 1492